Location: Marcé
(47.5801°N, 0.3280°W)
Time: 17:37:12
(UTC+01:00)

Tiros 1 - Pass Details

Date: 09 December 2021
Orbit: 629 x 664 km, 48.4° (Epoch: 26 January)

Event Time Altitude Azimuth Distance (km) Brightness Sun altitude
Rises 21:54:49 0° 284° (WNW) 2,935 11.2 -46.7°
Enters shadow 21:55:27 - 284° (WNW) 2,681 11.0 -46.9°
Reaches altitude 10° 21:57:08 10° 283° (WNW) 2,030 - -47.1°
Maximum altitude 22:01:47 70° 200° (SSW) 687 - -47.9°
Drops below altitude 10° 22:06:29 10° 117° (ESE) 2,047 - -48.6°
Sets 22:08:50 0° 115° (ESE) 2,961 - -49.0°
